JCSAT-13

Last updated on Sun Jun 21 2026 00:03:05 GMT+0000 (Coordinated Universal Time)

1 38331U 12023A 26171.48297284 -.00000360 00000+0 00000+0 0 9995 2 38331 0.0265 67.0330 0002373 19.9743 119.5641 1.00272452 51578
UTC large
Height (km)
Speed (km/s)
/
Latitude / Longitude
Inclination (degrees)
Orbital Period (minutes)
Azimuth
Elevation
Range (km)
Doppler Factor

Next 0 passes for location: London (51.5072 / 0.1276)

No passes found over London.
JCSAT-13